Location: Poughquag
(41.6090°N, 73.6820°W)
Time: 07:05:10
(UTC-05:00)

STRAND 1 - Pass Details

Date: 03 December 2023
Orbit: 766 x 778 km, 98.4° (Epoch: 24 February)

Event Time Altitude Azimuth Distance (km) Brightness Sun altitude
Rises 05:19:39 0° 157° (SSE) 3,235 ? -18.9°
Reaches altitude 10° 05:21:58 10° 155° (SSE) 2,310 ? -18.5°
Maximum altitude 05:27:01 67° 73° (ENE) 837 ? -17.6°
Drops below altitude 10° 05:32:05 10° 352° (N) 2,318 ? -16.7°
Sets 05:34:24 0° 350° (N) 3,248 ? -16.3°
